[[{"header":{"parameterUnit":"m.s-1","parameterCategory":1,"la1":30.2991,"la2":30.254,"lo1":-89.0895,"lo2":-89.0444,"dy":0.0017,"dx":0.0017,"nx":28,"ny":28,"refTime":"2023-05-01T21:00:00:Z","depth":0,"parameterNumber":2,"parameterNumberName":"U-component_of_WINDS"},"data":[0,0,0,0,0,0,0,0,0,0,0,0,0,0,0,0,0,0,0,0,0,0,0,0,0,0,0,0,0,0,0,0,0,0,0,0,0,0,0,0,0,0,0,0,0,0,0,0,0,0,0,0,0,0,0,0,0,0,2.3441,2.3442,0,2.3545,2.3546,2.3547,2.3618,2.3619,2.3619,2.3619,2.3726,2.3729,2.3731,0,0,0,0,0,0,0,0,0,0,0,0,0,2.3308,2.331,2.3441,2.3443,2.3444,2.3545,2.3546,2.3548,2.3618,2.3619,2.3619,2.362,2.3726,2.3728,2.3731,0,0,0,0,0,0,0,0,0,0,0,0,0,2.3384,2.331,2.3441,2.3491,2.3497,2.3545,2.3546,2.3548,2.3618,2.3619,2.3619,2.362,2.3725,2.3728,2.3732,2.3738,0,0,2.3742,2.3744,0,0,0,0,0,0,0,0,2.338,2.3389,2.3482,2.3488,2.3494,2.3569,2.3538,2.3612,2.3618,2.3572,2.362,2.362,2.3674,2.3681,2.3699,2.3743,2.3748,2.3743,2.3745,2.3746,2.3747,0,0,0,0,0,0,0,2.3374,2.3385,2.3482,2.3484,2.3491,2.351,2.3521,2.3553,2.3617,2.3576,2.3581,2.3592,2.3677,2.3695,2.3702,2.3749,2.3743,2.3746,2.3748,2.3749,2.3809,2.3808,0,0,0,0,0,0,2.3361,2.338,2.3479,2.3485,2.3437,2.3511,2.3524,2.3544,2.3617,2.3629,2.3592,2.3595,2.3689,2.3698,2.3706,2.3721,2.3746,2.375,2.3752,2.3809,2.3809,2.3808,0,0,0,0,0,0,2.3358,2.3369,2.3475,2.3434,2.3449,2.3513,2.3535,2.3546,2.3565,2.3629,2.3641,2.3599,2.369,2.3701,2.3731,2.3726,2.3751,2.3755,2.381,2.3809,2.3808,2.3749,0,0,0,0,0,0,2.3353,2.3367,2.3369,2.3434,2.3451,2.3496,2.3534,2.3547,2.3571,2.3576,2.3639,2.365,2.3691,2.3725,2.3734,2.3731,2.3757,2.3811,2.381,2.3809,2.3752,2.3747,2.3742,0,0,0,0,0,2.3348,2.3347,2.3369,2.338,2.3455,2.3496,2.3506,2.3553,2.357,2.3573,2.3615,2.3648,2.3725,2.3727,2.3738,2.3736,2.3811,2.381,2.3809,2.3754,2.3748,2.3742,0,0,0,0,0,0,2.3279,2.3357,2.3381,2.3401,2.3441,2.3507,2.3512,2.3544,2.3581,2.3584,2.3643,2.3656,2.3681,2.3712,2.3713,2.3749,2.3772,2.3773,2.3727,2.3721,2.3716,2.3708,2.376,0,0,0,0,0,2.3267,2.3293,2.3359,2.3371,2.339,2.3448,2.3467,2.3501,2.3545,2.3563,2.3607,2.3649,2.3683,2.3704,2.3739,2.3758,2.3774,2.3762,2.3757,2.3753,2.3752,2.3768,2.3764,2.3804,2.3804,2.3804,0,0,2.324,2.3286,2.3298,2.3358,2.3393,2.342,2.3461,2.3487,2.3509,2.3567,2.3597,2.3632,2.3683,2.3708,2.3721,2.3735,2.3746,2.3751,2.3747,2.3749,2.3766,2.3762,2.3759,2.3803,2.3803,2.3804,0,0,2.3206,2.3242,2.3257,2.3293,2.3346,2.3386,2.3389,2.3452,2.3477,2.3509,2.3554,2.3582,2.3638,2.3674,2.3699,2.3684,2.3717,2.3694,2.3668,2.3682,2.3679,2.3677,2.3673,2.3671,2.3694,2.3694,2.3694,0,2.3166,2.3208,2.3261,2.3285,2.3311,2.3367,2.3384,2.3416,2.3477,2.3495,2.351,2.3585,2.3623,2.3659,2.3656,2.3674,2.3682,2.3687,2.3675,2.3673,2.3672,2.3669,2.3667,2.3691,2.3691,2.3692,2.3692,0,2.3158,2.3186,2.3192,2.3252,2.3279,2.3299,2.3357,2.3379,2.3411,2.345,2.3484,2.3533,2.358,2.3591,2.3623,2.3633,2.364,2.3664,2.3689,2.3664,2.3662,2.3662,2.3687,2.3688,2.3689,2.369,0,0,2.3079,2.3171,2.3172,2.3202,2.3267,2.3291,2.3316,2.3363,2.3381,2.3424,2.3447,2.3496,2.3521,2.355,2.3587,2.3599,2.3587,2.3623,2.3625,2.3615,2.3604,2.3585,2.3583,2.361,2.361,2.361,2.36,0,2.3055,2.3101,2.3152,2.3181,2.321,2.3266,2.3288,2.3332,2.337,2.3401,2.3444,2.3478,2.3506,2.3525,2.354,2.3585,2.3586,2.3587,2.3633,2.3634,2.3618,2.3582,2.3561,2.3549,2.36,2.3599,2.3599,0,2.3032,2.3073,2.3106,2.3173,2.3187,2.3205,2.3255,2.3283,2.3336,2.3363,2.3398,2.3438,2.3469,2.3492,2.3537,2.3537,2.3559,2.3585,2.3586,2.3591,2.3614,2.3587,2.3546,2.3544,2.3599,2.3599,2.3599,0,2.2973,2.3037,2.3065,2.3089,2.3167,2.3179,2.3213,2.3266,2.3292,2.3336,2.3354,2.3401,2.3426,2.3462,2.3515,2.3526,2.3556,2.3582,2.358,2.3579,2.3582,2.3581,2.3545,2.3597,2.3597,2.3597,2.3597,0,2.294,2.2958,2.304,2.3058,2.3081,2.314,2.3162,2.3201,2.3248,2.3276,2.3327,2.3352,2.342,2.3454,2.3496,2.3529,2.354,2.3563,2.3574,2.3559,2.3556,2.3573,2.3575,2.3597,2.3597,2.3597,2.3597,0,2.2877,2.2932,2.2968,2.304,2.3059,2.3073,2.3136,2.3156,2.3199,2.3234,2.3245,2.3312,2.3355,2.3412,2.3472,2.3501,2.3528,2.3545,2.351,2.3517,2.3512,2.3512,2.3486,2.3486,2.3537,2.3537,2.3536,0,2.2852,2.2867,2.2943,2.2965,2.2997,2.3032,2.3061,2.3122,2.3149,2.3212,2.3226,2.3273,2.3313,2.338,2.3435,2.3482,2.3501,2.3489,2.3508,2.3493,2.3502,2.35,2.3503,2.3483,2.3482,2.3482,2.3481,0,2.2802,2.283,2.2869,2.2918,2.295,2.2992,2.3036,2.3052,2.3122,2.3151,2.3196,2.3228,2.3291,2.3338,2.3394,2.343,2.3468,2.3475,2.3478,2.3461,2.3441,2.3453,2.3497,2.3475,2.3475,2.3476,2.3476,2.3477,2.2758,2.2776,2.2833,2.2875,2.2915,2.2956,2.298,2.3027,2.3066,2.3122,2.3156,2.3201,2.3257,2.3336,2.3371,2.3408,2.3422,2.3425,2.3426,2.3425,2.3421,2.3436,2.3418,2.3418,2.3419,2.3419,2.3419,0,2.2712,2.2752,2.2791,2.2852,2.2886,2.2921,2.2972,2.2999,2.3037,2.3086,2.3127,2.318,2.3228,2.3288,2.3339,2.3358,2.3377,2.3369,2.3368,2.3376,2.3404,2.3398,2.3353,2.3353,2.3353,2.3353,2.3353,2.3353,2.2692,2.2724,2.276,2.2814,2.2856,2.2899,2.2926,2.2966,2.3006,2.3064,2.3103,2.3143,2.3198,2.3255,2.33,2.3317,2.3334,2.3321,2.3343,2.3368,2.3374,2.3379,2.3373,2.3325,2.3325,2.3312,2.3312,2.3312]},{"header":{"parameterUnit":"m.s-1","parameterCategory":1,"la1":30.2991,"la2":30.254,"lo1":-89.0895,"lo2":-89.0444,"dy":0.0017,"dx":0.0017,"nx":28,"ny":28,"refTime":"2023-05-01T21:00:00:Z","depth":0,"parameterNumber":3,"parameterNumberName":"V-component_of_WINDS"},"data":[0,0,0,0,0,0,0,0,0,0,0,0,0,0,0,0,0,0,0,0,0,0,0,0,0,0,0,0,0,0,0,0,0,0,0,0,0,0,0,0,0,0,0,0,0,0,0,0,0,0,0,0,0,0,0,0,0,0,2.3332,2.3333,0,2.3427,2.3428,2.3429,2.3422,2.3421,2.342,2.3418,2.3515,2.3518,2.3522,0,0,0,0,0,0,0,0,0,0,0,0,0,2.3139,2.3143,2.3332,2.3333,2.3334,2.3427,2.3428,2.3429,2.3423,2.3421,2.3419,2.3418,2.3513,2.3518,2.3523,0,0,0,0,0,0,0,0,0,0,0,0,0,2.3227,2.3144,2.3332,2.3342,2.3344,2.3427,2.3428,2.343,2.3423,2.3421,2.3419,2.3417,2.3512,2.3518,2.3523,2.3602,0,0,2.3541,2.3544,0,0,0,0,0,0,0,0,2.3222,2.3234,2.3339,2.3341,2.3344,2.3411,2.3396,2.3487,2.3424,2.3393,2.3418,2.3416,2.3482,2.349,2.3512,2.3606,2.361,2.3542,2.3545,2.3548,2.3549,0,0,0,0,0,0,0,2.3216,2.323,2.337,2.3341,2.3344,2.334,2.335,2.3413,2.3448,2.3395,2.3395,2.3407,2.3482,2.3507,2.3515,2.3612,2.3541,2.3547,2.355,2.3552,2.3767,2.3769,0,0,0,0,0,0,2.3208,2.3225,2.3367,2.3372,2.3277,2.3345,2.3357,2.3391,2.3447,2.3454,2.3408,2.3406,2.3498,2.3508,2.3518,2.3608,2.3548,2.3553,2.3556,2.3764,2.3767,2.3769,0,0,0,0,0,0,2.3204,2.3221,2.3363,2.3299,2.3316,2.3351,2.339,2.3394,2.3419,2.3457,2.3463,2.3427,2.3497,2.351,2.3579,2.3612,2.3556,2.3561,2.3762,2.3765,2.3768,2.3793,0,0,0,0,0,0,2.3199,2.322,2.3251,2.33,2.332,2.3424,2.3392,2.3398,2.3429,2.3427,2.3476,2.3482,2.3496,2.357,2.3585,2.3619,2.3566,2.3759,2.3763,2.3767,2.3789,2.3796,2.3802,0,0,0,0,0,2.3192,2.3256,2.3253,2.327,2.3361,2.3426,2.3438,2.3453,2.3432,2.3462,2.3486,2.3481,2.3606,2.3578,2.3594,2.363,2.3757,2.3762,2.3767,2.3786,2.3795,2.3802,0,0,0,0,0,0,2.3212,2.3263,2.326,2.3342,2.338,2.3425,2.3465,2.3462,2.3507,2.3503,2.3519,2.353,2.3598,2.3622,2.3589,2.3705,2.3678,2.3687,2.3687,2.3696,2.3703,2.3695,2.357,0,0,0,0,0,2.3226,2.3276,2.3317,2.3385,2.3404,2.3431,2.346,2.3468,2.3507,2.3523,2.3552,2.359,2.3637,2.3668,2.3715,2.3792,2.38,2.3824,2.3831,2.3836,2.3843,2.388,2.3889,2.3786,2.3786,2.3785,0,0,2.3256,2.3289,2.332,2.339,2.342,2.3469,2.3445,2.3499,2.3534,2.3532,2.3597,2.362,2.3662,2.3735,2.3768,2.3756,2.3873,2.3843,2.3847,2.385,2.3886,2.3895,2.3904,2.3789,2.3788,2.3788,0,0,2.3333,2.3366,2.3423,2.3452,2.3497,2.3514,2.3527,2.3572,2.3586,2.3652,2.3649,2.3691,2.3774,2.3802,2.3828,2.3909,2.3904,2.3924,2.3958,2.3994,2.4002,2.4009,2.4034,2.4043,2.393,2.393,2.393,0,2.3364,2.3439,2.3453,2.3506,2.3534,2.3532,2.3587,2.3616,2.3673,2.3692,2.3677,2.3776,2.3806,2.3882,2.3901,2.3923,2.3936,2.3918,2.4,2.4007,2.4014,2.4038,2.4047,2.3932,2.3932,2.3932,2.3932,0,2.3472,2.3523,2.3564,2.3617,2.365,2.3705,2.3724,2.3755,2.3758,2.3775,2.3839,2.3874,2.3924,2.3943,2.3948,2.4017,2.4008,2.3997,2.397,2.4025,2.4047,2.4057,2.3935,2.3934,2.3934,2.3933,0,0,2.3568,2.3624,2.3638,2.3659,2.3706,2.3745,2.3797,2.3845,2.3869,2.3908,2.3949,2.4016,2.4004,2.4032,2.404,2.4072,2.4127,2.4056,2.4057,2.4064,2.42,2.4206,2.4217,2.4124,2.4126,2.4128,2.4195,0,2.3647,2.3739,2.375,2.3831,2.3875,2.3871,2.3915,2.3947,2.3963,2.4001,2.4019,2.4064,2.4047,2.4063,2.4095,2.4114,2.4154,2.411,2.416,2.4161,2.4147,2.4229,2.4237,2.4299,2.4204,2.4206,2.4207,0,2.3753,2.3791,2.3876,2.391,2.3929,2.3969,2.401,2.4048,2.4082,2.4091,2.412,2.4122,2.4172,2.4143,2.421,2.4179,2.42,2.4212,2.4214,2.4218,2.4186,2.4231,2.432,2.4328,2.4222,2.422,2.4219,0,2.3808,2.3881,2.394,2.3959,2.4002,2.4029,2.4048,2.408,2.4106,2.4142,2.4158,2.4199,2.4222,2.4252,2.4264,2.4243,2.4328,2.4302,2.4334,2.4333,2.4351,2.4349,2.444,2.4369,2.4369,2.4369,2.4368,0,2.3894,2.3944,2.3964,2.4,2.4055,2.4065,2.4119,2.4137,2.4164,2.4201,2.4201,2.4235,2.4249,2.4285,2.4295,2.4345,2.4356,2.4362,2.4364,2.4361,2.4359,2.4373,2.4368,2.4371,2.4371,2.437,2.437,0,2.3965,2.3981,2.4043,2.4077,2.4086,2.4125,2.4153,2.4186,2.4199,2.4246,2.4257,2.4278,2.432,2.4334,2.4386,2.4391,2.4449,2.4448,2.4437,2.4436,2.4466,2.4461,2.4567,2.4579,2.4503,2.4503,2.4504,0,2.4017,2.4055,2.4092,2.4116,2.4135,2.4175,2.42,2.4211,2.4236,2.4274,2.4301,2.4342,2.4375,2.4441,2.446,2.4498,2.4496,2.453,2.4502,2.4495,2.4491,2.4488,2.4489,2.4535,2.4536,2.4536,2.4537,0,2.4106,2.4111,2.4147,2.4185,2.4214,2.4245,2.4275,2.4294,2.4308,2.4337,2.4378,2.4404,2.4453,2.4492,2.4529,2.4547,2.4543,2.4545,2.4554,2.455,2.4541,2.4542,2.4448,2.4543,2.4542,2.4542,2.4542,2.4541,2.4167,2.4198,2.4227,2.4266,2.4289,2.4315,2.4345,2.4361,2.4396,2.4437,2.4441,2.4484,2.4511,2.4561,2.4579,2.4612,2.4602,2.4616,2.4619,2.4621,2.4621,2.4537,2.4619,2.4619,2.4619,2.4619,2.4619,0,2.4252,2.427,2.4305,2.4345,2.4374,2.4367,2.4398,2.4422,2.446,2.4487,2.4518,2.4562,2.4599,2.4619,2.4654,2.4676,2.4675,2.4685,2.4682,2.4685,2.463,2.4617,2.4685,2.4685,2.4685,2.4685,2.4685,2.4685,2.43,2.4351,2.4358,2.4418,2.4435,2.4477,2.4494,2.4517,2.4537,2.4586,2.4616,2.4628,2.4651,2.4687,2.4719,2.4723,2.4735,2.4745,2.4749,2.4697,2.469,2.4683,2.4671,2.4749,2.4749,2.4801,2.4801,2.4802]}]]